Year,Month,Day,Hour,Minute,Value (Times are PST for temperature in C)
2023,03,29,00,00,8.60
2023,03,29,00,01,8.60
2023,03,29,00,02,8.50
2023,03,29,00,03,8.50
2023,03,29,00,04,8.40
2023,03,29,00,05,8.40
2023,03,29,00,06,8.30
2023,03,29,00,07,8.30
2023,03,29,00,08,8.20
2023,03,29,00,09,8.10
2023,03,29,00,10,8.10
2023,03,29,00,11,8.00
2023,03,29,00,12,8.00
2023,03,29,00,13,7.90
2023,03,29,00,14,7.90
2023,03,29,00,15,7.90
2023,03,29,00,16,7.90
2023,03,29,00,17,8.00
2023,03,29,00,18,8.00
2023,03,29,00,19,8.00
2023,03,29,00,20,8.10
2023,03,29,00,21,8.10
2023,03,29,00,22,8.20
2023,03,29,00,23,8.20
2023,03,29,00,24,8.20
2023,03,29,00,25,8.20
2023,03,29,00,26,8.20
2023,03,29,00,27,8.20
2023,03,29,00,28,8.20
2023,03,29,00,29,8.20
2023,03,29,00,30,8.20
2023,03,29,00,31,8.20
2023,03,29,00,32,8.20
2023,03,29,00,33,8.20
2023,03,29,00,34,8.10
2023,03,29,00,35,8.00
2023,03,29,00,36,8.00
2023,03,29,00,37,7.90
2023,03,29,00,38,7.90
2023,03,29,00,39,7.80
2023,03,29,00,40,7.80
2023,03,29,00,41,7.80
2023,03,29,00,42,7.70
2023,03,29,00,43,7.70
2023,03,29,00,44,7.60
2023,03,29,00,45,7.60
2023,03,29,00,46,7.50
2023,03,29,00,47,7.50
2023,03,29,00,48,7.50
2023,03,29,00,49,7.40
2023,03,29,00,50,7.40
2023,03,29,00,51,7.40
2023,03,29,00,52,7.40
2023,03,29,00,53,7.30
2023,03,29,00,54,7.30
2023,03,29,00,55,7.30
2023,03,29,00,56,7.30
2023,03,29,00,57,7.40
2023,03,29,00,58,7.40
2023,03,29,00,59,7.50
2023,03,29,01,00,7.60
2023,03,29,01,01,7.70
2023,03,29,01,02,7.80
2023,03,29,01,03,7.90
2023,03,29,01,04,8.00
2023,03,29,01,05,8.10
2023,03,29,01,06,8.20
2023,03,29,01,07,8.20
2023,03,29,01,08,8.20
2023,03,29,01,09,8.20
2023,03,29,01,10,8.20
2023,03,29,01,11,8.20
2023,03,29,01,12,8.20
2023,03,29,01,13,8.20
2023,03,29,01,14,8.20
2023,03,29,01,15,8.20
2023,03,29,01,16,8.20
2023,03,29,01,17,8.20
2023,03,29,01,18,8.20
2023,03,29,01,19,8.20
2023,03,29,01,20,8.20
2023,03,29,01,21,8.20
2023,03,29,01,22,8.20
2023,03,29,01,23,8.20
2023,03,29,01,24,8.20
2023,03,29,01,25,8.20
2023,03,29,01,26,8.20
2023,03,29,01,27,8.30
2023,03,29,01,28,8.30
2023,03,29,01,29,8.30
2023,03,29,01,30,8.40
2023,03,29,01,31,8.40
2023,03,29,01,32,8.40
2023,03,29,01,33,8.40
2023,03,29,01,34,8.40
2023,03,29,01,35,8.40
2023,03,29,01,36,8.40
2023,03,29,01,37,8.40
2023,03,29,01,38,8.40
2023,03,29,01,39,8.40
2023,03,29,01,40,8.40
2023,03,29,01,41,8.50
2023,03,29,01,42,8.40
2023,03,29,01,43,8.40
2023,03,29,01,44,8.40
2023,03,29,01,45,8.40
2023,03,29,01,46,8.40
2023,03,29,01,47,8.50
2023,03,29,01,48,8.50
2023,03,29,01,49,8.50
2023,03,29,01,50,8.50
2023,03,29,01,51,8.50
2023,03,29,01,52,8.40
2023,03,29,01,53,8.40
2023,03,29,01,54,8.40
2023,03,29,01,55,8.40
2023,03,29,01,56,8.40
2023,03,29,01,57,8.40
2023,03,29,01,58,8.40
2023,03,29,01,59,8.40
2023,03,29,02,00,8.40
2023,03,29,02,01,8.40
2023,03,29,02,02,8.40
2023,03,29,02,03,8.40
2023,03,29,02,04,8.40
2023,03,29,02,05,8.40
2023,03,29,02,06,8.40
2023,03,29,02,07,8.40
2023,03,29,02,08,8.50
2023,03,29,02,09,8.50
2023,03,29,02,10,8.50
2023,03,29,02,11,8.50
2023,03,29,02,12,8.60
2023,03,29,02,13,8.60
2023,03,29,02,14,8.60
2023,03,29,02,15,8.60
2023,03,29,02,16,8.70
2023,03,29,02,17,8.70
2023,03,29,02,18,8.70
2023,03,29,02,19,8.80
2023,03,29,02,20,8.80
2023,03,29,02,21,8.90
2023,03,29,02,22,8.90
2023,03,29,02,23,9.00
2023,03,29,02,24,9.00
2023,03,29,02,25,9.00
2023,03,29,02,26,9.10
2023,03,29,02,27,9.10
2023,03,29,02,28,9.10
2023,03,29,02,29,9.10
2023,03,29,02,30,9.10
2023,03,29,02,31,9.10
2023,03,29,02,32,9.00
2023,03,29,02,33,9.00
2023,03,29,02,34,9.00
2023,03,29,02,35,9.00
2023,03,29,02,36,9.00
2023,03,29,02,37,9.00
2023,03,29,02,38,9.00
2023,03,29,02,39,9.00
2023,03,29,02,40,9.00
2023,03,29,02,41,9.00
2023,03,29,02,42,9.00
2023,03,29,02,43,9.00
2023,03,29,02,44,9.00
2023,03,29,02,45,9.00
2023,03,29,02,46,9.10
2023,03,29,02,47,9.10
2023,03,29,02,48,9.10
2023,03,29,02,49,9.10
2023,03,29,02,50,9.10
2023,03,29,02,51,9.20
2023,03,29,02,52,9.20
2023,03,29,02,53,9.20
2023,03,29,02,54,9.20
2023,03,29,02,55,9.20
2023,03,29,02,56,9.20
2023,03,29,02,57,9.20
2023,03,29,02,58,9.30
2023,03,29,02,59,9.30
2023,03,29,03,00,9.40
2023,03,29,03,01,9.40
2023,03,29,03,02,9.40
2023,03,29,03,03,9.40
2023,03,29,03,04,9.40
2023,03,29,03,05,9.50
2023,03,29,03,06,9.50
2023,03,29,03,07,9.50
2023,03,29,03,08,9.50
2023,03,29,03,09,9.60
2023,03,29,03,10,9.60
2023,03,29,03,11,9.60
2023,03,29,03,12,9.60
2023,03,29,03,13,9.70
2023,03,29,03,14,9.70
2023,03,29,03,15,9.70
2023,03,29,03,16,9.70
2023,03,29,03,17,9.70
2023,03,29,03,18,9.70
2023,03,29,03,19,9.70
2023,03,29,03,20,9.70
2023,03,29,03,21,9.70
2023,03,29,03,22,9.70
2023,03,29,03,23,9.70
2023,03,29,03,24,9.70
2023,03,29,03,25,9.70
2023,03,29,03,26,9.60
2023,03,29,03,27,9.60
2023,03,29,03,28,9.60
2023,03,29,03,29,9.60
2023,03,29,03,30,9.60
2023,03,29,03,31,9.60
2023,03,29,03,32,9.60
2023,03,29,03,33,9.60
2023,03,29,03,34,9.60
2023,03,29,03,35,9.60
2023,03,29,03,36,9.60
2023,03,29,03,37,9.60
2023,03,29,03,38,9.60
2023,03,29,03,39,9.60
2023,03,29,03,40,9.60
2023,03,29,03,41,9.60
2023,03,29,03,42,9.60
2023,03,29,03,43,9.60
2023,03,29,03,44,9.60
2023,03,29,03,45,9.60
2023,03,29,03,46,9.60
2023,03,29,03,47,9.60
2023,03,29,03,48,9.60
2023,03,29,03,49,9.60
2023,03,29,03,50,9.60
2023,03,29,03,51,9.60
2023,03,29,03,52,9.60
2023,03,29,03,53,9.60
2023,03,29,03,54,9.60
2023,03,29,03,55,9.60
2023,03,29,03,56,9.60
2023,03,29,03,57,9.60
2023,03,29,03,58,9.60
2023,03,29,03,59,9.60
2023,03,29,04,00,9.60
2023,03,29,04,01,9.60
2023,03,29,04,02,9.60
2023,03,29,04,03,9.60
2023,03,29,04,04,9.60
2023,03,29,04,05,9.60
2023,03,29,04,06,9.60
2023,03,29,04,07,9.70
2023,03,29,04,08,9.70
2023,03,29,04,09,9.70
2023,03,29,04,10,9.70
2023,03,29,04,11,9.70
2023,03,29,04,12,9.70
2023,03,29,04,13,9.70
2023,03,29,04,14,9.70
2023,03,29,04,15,9.70
2023,03,29,04,16,9.70
2023,03,29,04,17,9.70
2023,03,29,04,18,9.70
2023,03,29,04,19,9.70
2023,03,29,04,20,9.60
2023,03,29,04,21,9.60
2023,03,29,04,22,9.70
2023,03,29,04,23,9.70
2023,03,29,04,24,9.70
2023,03,29,04,25,9.70
2023,03,29,04,26,9.70
2023,03,29,04,27,9.70
2023,03,29,04,28,9.70
2023,03,29,04,29,9.70
2023,03,29,04,30,9.70
2023,03,29,04,31,9.60
2023,03,29,04,32,9.60
2023,03,29,04,33,9.60
2023,03,29,04,34,9.60
2023,03,29,04,35,9.60
2023,03,29,04,36,9.60
2023,03,29,04,37,9.60
2023,03,29,04,38,9.60
2023,03,29,04,39,9.60
2023,03,29,04,40,9.60
2023,03,29,04,41,9.60
2023,03,29,04,42,9.60
2023,03,29,04,43,9.60
2023,03,29,04,44,9.60
2023,03,29,04,45,9.60
2023,03,29,04,46,9.60
2023,03,29,04,47,9.60
2023,03,29,04,48,9.60
2023,03,29,04,49,9.60
2023,03,29,04,50,9.60
2023,03,29,04,51,9.60
2023,03,29,04,52,9.60
2023,03,29,04,53,9.60
2023,03,29,04,54,9.60
2023,03,29,04,55,9.60
2023,03,29,04,56,9.60
2023,03,29,04,57,9.60
2023,03,29,04,58,9.50
2023,03,29,04,59,9.50
2023,03,29,05,00,9.50
2023,03,29,05,01,9.50
2023,03,29,05,02,9.50
2023,03,29,05,03,9.50
2023,03,29,05,04,9.40
2023,03,29,05,05,9.40
2023,03,29,05,06,9.40
2023,03,29,05,07,9.40
2023,03,29,05,08,9.40
2023,03,29,05,09,9.40
2023,03,29,05,10,9.40
2023,03,29,05,11,9.40
2023,03,29,05,12,9.40
2023,03,29,05,13,9.40
2023,03,29,05,14,9.40
2023,03,29,05,15,9.40
2023,03,29,05,16,9.30
2023,03,29,05,17,9.40
2023,03,29,05,18,9.40
2023,03,29,05,19,9.40
2023,03,29,05,20,9.40
2023,03,29,05,21,9.40
2023,03,29,05,22,9.40
2023,03,29,05,23,9.40
2023,03,29,05,24,9.40
2023,03,29,05,25,9.50
2023,03,29,05,26,9.50
2023,03,29,05,27,9.40
2023,03,29,05,28,9.40
2023,03,29,05,29,9.40
2023,03,29,05,30,9.40
2023,03,29,05,31,9.40
2023,03,29,05,32,9.40
2023,03,29,05,33,9.30
2023,03,29,05,34,9.30
2023,03,29,05,35,9.30
2023,03,29,05,36,9.30
2023,03,29,05,37,9.20
2023,03,29,05,38,9.20
2023,03,29,05,39,9.20
2023,03,29,05,40,9.20
2023,03,29,05,41,9.20
2023,03,29,05,42,9.20
2023,03,29,05,43,9.20
2023,03,29,05,44,9.20
2023,03,29,05,45,9.20
2023,03,29,05,46,9.20
2023,03,29,05,47,9.20
2023,03,29,05,48,9.20
2023,03,29,05,49,9.10
2023,03,29,05,50,9.10
2023,03,29,05,51,9.00
2023,03,29,05,52,9.00
2023,03,29,05,53,9.00
2023,03,29,05,54,8.90
2023,03,29,05,55,8.90
2023,03,29,05,56,8.80
2023,03,29,05,57,8.80
2023,03,29,05,58,8.70
2023,03,29,05,59,8.70
2023,03,29,06,00,8.70
2023,03,29,06,01,8.60
2023,03,29,06,02,8.60
2023,03,29,06,03,8.60
2023,03,29,06,04,8.60
2023,03,29,06,05,8.50
2023,03,29,06,06,8.50
2023,03,29,06,07,8.50
2023,03,29,06,08,8.50
2023,03,29,06,09,8.50
2023,03,29,06,10,8.50
2023,03,29,06,11,8.50
2023,03,29,06,12,8.50
2023,03,29,06,13,8.50
2023,03,29,06,14,8.60
2023,03,29,06,15,8.60
2023,03,29,06,16,8.70
2023,03,29,06,17,8.70
2023,03,29,06,18,8.80
2023,03,29,06,19,8.80
2023,03,29,06,20,8.90
2023,03,29,06,21,9.00
2023,03,29,06,22,9.00
2023,03,29,06,23,9.00
2023,03,29,06,24,9.10
2023,03,29,06,25,9.10
2023,03,29,06,26,9.10
2023,03,29,06,27,9.10
2023,03,29,06,28,9.10
2023,03,29,06,29,9.10
2023,03,29,06,30,9.10
2023,03,29,06,31,9.20
2023,03,29,06,32,9.20
2023,03,29,06,33,9.20
2023,03,29,06,34,9.20
2023,03,29,06,35,9.20
2023,03,29,06,36,9.20
2023,03,29,06,37,9.20
2023,03,29,06,38,9.20
2023,03,29,06,39,9.20
2023,03,29,06,40,9.20
2023,03,29,06,41,9.10
2023,03,29,06,42,9.10
2023,03,29,06,43,9.00
2023,03,29,06,44,9.00
2023,03,29,06,45,8.90
2023,03,29,06,46,8.90
2023,03,29,06,47,8.80
2023,03,29,06,48,8.80
2023,03,29,06,49,8.70
2023,03,29,06,50,8.70
2023,03,29,06,51,8.60
2023,03,29,06,52,8.50
2023,03,29,06,53,8.50
2023,03,29,06,54,8.40
2023,03,29,06,55,8.40
2023,03,29,06,56,8.30
2023,03,29,06,57,8.30
2023,03,29,06,58,8.20
2023,03,29,06,59,8.20
2023,03,29,07,00,8.20
2023,03,29,07,01,8.10
2023,03,29,07,02,8.10
2023,03,29,07,03,8.10
2023,03,29,07,04,8.00
2023,03,29,07,05,8.00
2023,03,29,07,06,8.00
2023,03,29,07,07,8.00
2023,03,29,07,08,8.00
2023,03,29,07,09,8.00
2023,03,29,07,10,7.90
2023,03,29,07,11,8.00
2023,03,29,07,12,8.00
2023,03,29,07,13,8.00
2023,03,29,07,14,8.20
2023,03,29,07,15,8.20
2023,03,29,07,16,8.30
2023,03,29,07,17,8.40
2023,03,29,07,18,8.50
2023,03,29,07,19,8.60
2023,03,29,07,20,8.70
2023,03,29,07,21,8.70
2023,03,29,07,22,8.70
2023,03,29,07,23,8.80
2023,03,29,07,24,8.80
2023,03,29,07,25,8.80
2023,03,29,07,26,8.70
2023,03,29,07,27,8.70
2023,03,29,07,28,8.70
2023,03,29,07,29,8.70
2023,03,29,07,30,8.70
2023,03,29,07,31,8.70
2023,03,29,07,32,8.70
2023,03,29,07,33,8.60
2023,03,29,07,34,8.70
2023,03,29,07,35,8.70
2023,03,29,07,36,8.70
2023,03,29,07,37,8.70
2023,03,29,07,38,8.70
2023,03,29,07,39,8.70
2023,03,29,07,40,8.70
2023,03,29,07,41,8.70
2023,03,29,07,42,8.70
2023,03,29,07,43,8.70
2023,03,29,07,44,8.70
2023,03,29,07,45,8.70
2023,03,29,07,46,8.80
2023,03,29,07,47,8.80
2023,03,29,07,48,8.80
2023,03,29,07,49,8.90
2023,03,29,07,50,8.90
2023,03,29,07,51,8.90
2023,03,29,07,52,9.00
2023,03,29,07,53,9.00
2023,03,29,07,54,9.10
2023,03,29,07,55,9.20
2023,03,29,07,56,9.20
2023,03,29,07,57,9.20
2023,03,29,07,58,9.20
2023,03,29,07,59,9.30
2023,03,29,08,00,9.30
2023,03,29,08,01,9.30
2023,03,29,08,02,9.40
2023,03,29,08,03,9.50
2023,03,29,08,04,9.50
2023,03,29,08,05,9.60
2023,03,29,08,06,9.70
2023,03,29,08,07,9.80
2023,03,29,08,08,9.90
2023,03,29,08,09,9.90
2023,03,29,08,10,9.90
2023,03,29,08,11,10.10
2023,03,29,08,12,10.10
2023,03,29,08,13,10.10
2023,03,29,08,14,10.20
2023,03,29,08,15,10.20
2023,03,29,08,16,10.20
2023,03,29,08,17,10.30
2023,03,29,08,18,10.30
2023,03,29,08,19,10.30
2023,03,29,08,20,10.40
2023,03,29,08,21,10.40
2023,03,29,08,22,10.40
2023,03,29,08,23,10.40
2023,03,29,08,24,10.40
2023,03,29,08,25,10.40
2023,03,29,08,26,10.50
2023,03,29,08,27,10.60
2023,03,29,08,28,10.60
2023,03,29,08,29,10.60
2023,03,29,08,30,10.60
2023,03,29,08,31,10.60
2023,03,29,08,32,10.60
2023,03,29,08,33,10.60
2023,03,29,08,34,10.50
2023,03,29,08,35,10.40
2023,03,29,08,36,10.40
2023,03,29,08,37,10.20
2023,03,29,08,38,10.20
2023,03,29,08,39,10.10
2023,03,29,08,40,10.00
2023,03,29,08,41,9.90
2023,03,29,08,42,9.90
2023,03,29,08,43,9.90
2023,03,29,08,44,9.90
2023,03,29,08,45,9.80
2023,03,29,08,46,9.80
2023,03,29,08,47,9.90
2023,03,29,08,48,9.90
2023,03,29,08,49,9.90
2023,03,29,08,50,9.90
2023,03,29,08,51,9.90
2023,03,29,08,52,10.00
2023,03,29,08,53,10.10
2023,03,29,08,54,10.10
2023,03,29,08,55,10.20
2023,03,29,08,56,10.20
2023,03,29,08,57,10.30
2023,03,29,08,58,10.40
2023,03,29,08,59,10.60
2023,03,29,09,00,10.60
2023,03,29,09,01,10.60
2023,03,29,09,02,10.60
2023,03,29,09,03,10.70
2023,03,29,09,04,10.80
2023,03,29,09,05,10.90
2023,03,29,09,06,10.90
2023,03,29,09,07,11.00
2023,03,29,09,08,11.10
2023,03,29,09,09,11.10
2023,03,29,09,10,11.10
2023,03,29,09,11,11.10
2023,03,29,09,12,11.10
2023,03,29,09,13,11.10
2023,03,29,09,14,11.10
2023,03,29,09,15,11.10
2023,03,29,09,16,11.10
2023,03,29,09,17,11.10
2023,03,29,09,18,11.10
2023,03,29,09,19,11.10
2023,03,29,09,20,11.20
2023,03,29,09,21,11.40
2023,03,29,09,22,11.40
2023,03,29,09,23,11.60
2023,03,29,09,24,11.60
2023,03,29,09,25,11.70
2023,03,29,09,26,11.80
2023,03,29,09,27,11.90
2023,03,29,09,28,12.00
2023,03,29,09,29,12.00
2023,03,29,09,30,12.10
2023,03,29,09,31,12.20
2023,03,29,09,32,12.20
2023,03,29,09,33,12.20
2023,03,29,09,34,12.30
2023,03,29,09,35,12.30
2023,03,29,09,36,12.30
2023,03,29,09,37,12.30
2023,03,29,09,38,12.30
2023,03,29,09,39,12.30
2023,03,29,09,40,12.30
2023,03,29,09,41,12.30
2023,03,29,09,42,12.30
2023,03,29,09,43,12.20
2023,03,29,09,44,12.20
2023,03,29,09,45,12.20
2023,03,29,09,46,12.20
2023,03,29,09,47,12.10
2023,03,29,09,48,12.00
2023,03,29,09,49,12.00
2023,03,29,09,50,12.00
2023,03,29,09,51,12.00
2023,03,29,09,52,12.00
2023,03,29,09,53,12.00
2023,03,29,09,54,12.00
2023,03,29,09,55,12.00
2023,03,29,09,56,12.10
2023,03,29,09,57,12.10
2023,03,29,09,58,12.20
2023,03,29,09,59,12.20
2023,03,29,10,00,12.30
2023,03,29,10,01,12.30
2023,03,29,10,02,12.30
2023,03,29,10,03,12.40
2023,03,29,10,04,12.40
2023,03,29,10,05,12.50
2023,03,29,10,06,12.50
2023,03,29,10,07,12.60
2023,03,29,10,08,12.60
2023,03,29,10,09,12.60
2023,03,29,10,10,12.70
2023,03,29,10,11,12.70
2023,03,29,10,12,12.80
2023,03,29,10,13,12.80
2023,03,29,10,14,12.90
2023,03,29,10,15,12.90
2023,03,29,10,16,12.90
2023,03,29,10,17,12.90
2023,03,29,10,18,12.90
2023,03,29,10,19,12.80
2023,03,29,10,20,12.80
2023,03,29,10,21,12.80
2023,03,29,10,22,12.80
2023,03,29,10,23,12.70
2023,03,29,10,24,12.60
2023,03,29,10,25,12.50
2023,03,29,10,26,12.50
2023,03,29,10,27,12.60
2023,03,29,10,28,12.70
2023,03,29,10,29,12.80
2023,03,29,10,30,12.90
2023,03,29,10,31,13.00
2023,03,29,10,32,13.10
2023,03,29,10,33,13.20
2023,03,29,10,34,13.20
2023,03,29,10,35,13.30
2023,03,29,10,36,13.20
2023,03,29,10,37,13.10
2023,03,29,10,38,13.10
2023,03,29,10,39,13.00
2023,03,29,10,40,12.90
2023,03,29,10,41,12.80
2023,03,29,10,42,12.80
2023,03,29,10,43,12.70
2023,03,29,10,44,12.70
2023,03,29,10,45,12.70
2023,03,29,10,46,12.60
2023,03,29,10,47,12.60
2023,03,29,10,48,12.50
2023,03,29,10,49,12.30
2023,03,29,10,50,12.30
2023,03,29,10,51,12.20
2023,03,29,10,52,12.20
2023,03,29,10,53,12.20
2023,03,29,10,54,12.30
2023,03,29,10,55,12.30
2023,03,29,10,56,12.40
2023,03,29,10,57,12.40
2023,03,29,10,58,12.50
2023,03,29,10,59,12.50
2023,03,29,11,00,12.50
2023,03,29,11,01,12.60
2023,03,29,11,02,12.50
2023,03,29,11,03,12.50
2023,03,29,11,04,12.50
2023,03,29,11,05,12.40
2023,03,29,11,06,12.30
2023,03,29,11,07,12.20
2023,03,29,11,08,12.00
2023,03,29,11,09,11.90
2023,03,29,11,10,11.80
2023,03,29,11,11,11.70
2023,03,29,11,12,11.60
2023,03,29,11,13,11.50
2023,03,29,11,14,11.40
2023,03,29,11,15,11.50
2023,03,29,11,16,11.60
2023,03,29,11,17,11.70
2023,03,29,11,18,11.80
2023,03,29,11,19,11.80
2023,03,29,11,20,11.80
2023,03,29,11,21,11.90
2023,03,29,11,22,11.90
2023,03,29,11,23,11.80
2023,03,29,11,24,11.80
2023,03,29,11,25,11.80
2023,03,29,11,26,11.80
2023,03,29,11,27,11.80
2023,03,29,11,28,11.80
2023,03,29,11,29,11.80
2023,03,29,11,30,11.90
2023,03,29,11,31,12.10
2023,03,29,11,32,12.20
2023,03,29,11,33,12.20
2023,03,29,11,34,12.20
2023,03,29,11,35,12.30
2023,03,29,11,36,12.30
2023,03,29,11,37,12.30
2023,03,29,11,38,12.30
2023,03,29,11,39,12.40
2023,03,29,11,40,12.50
2023,03,29,11,41,12.60
2023,03,29,11,42,12.60
2023,03,29,11,43,12.60
2023,03,29,11,44,12.50
2023,03,29,11,45,12.60
2023,03,29,11,46,12.60
2023,03,29,11,47,12.70
2023,03,29,11,48,12.60
2023,03,29,11,49,12.50
2023,03,29,11,50,12.40
2023,03,29,11,51,12.40
2023,03,29,11,52,12.30
2023,03,29,11,53,12.40
2023,03,29,11,54,12.50
2023,03,29,11,55,12.50
2023,03,29,11,56,12.50
2023,03,29,11,57,12.50
2023,03,29,11,58,12.60
2023,03,29,11,59,12.70
2023,03,29,12,00,12.80
2023,03,29,12,01,12.90
2023,03,29,12,02,12.90
2023,03,29,12,03,12.90
2023,03,29,12,04,12.80
2023,03,29,12,05,12.70
2023,03,29,12,06,12.60
2023,03,29,12,07,12.50
2023,03,29,12,08,12.50
2023,03,29,12,09,12.50
2023,03,29,12,10,12.50
2023,03,29,12,11,12.50
2023,03,29,12,12,12.70
2023,03,29,12,13,12.80
2023,03,29,12,14,12.80
2023,03,29,12,15,12.90
2023,03,29,12,16,12.90
2023,03,29,12,17,12.80
2023,03,29,12,18,12.90
2023,03,29,12,19,12.90
2023,03,29,12,20,13.10
2023,03,29,12,21,13.20
2023,03,29,12,22,13.30
2023,03,29,12,23,13.30
2023,03,29,12,24,13.30
2023,03,29,12,25,13.20
2023,03,29,12,26,13.10
2023,03,29,12,27,12.90
2023,03,29,12,28,12.80
2023,03,29,12,29,12.70
2023,03,29,12,30,12.70
2023,03,29,12,31,12.70
2023,03,29,12,32,12.80
2023,03,29,12,33,12.70
2023,03,29,12,34,12.60
2023,03,29,12,35,12.60
2023,03,29,12,36,12.70
2023,03,29,12,37,12.80
2023,03,29,12,38,12.80
2023,03,29,12,39,12.90
2023,03,29,12,40,12.80
2023,03,29,12,41,12.80
2023,03,29,12,42,12.80
2023,03,29,12,43,12.80
2023,03,29,12,44,12.80
2023,03,29,12,45,12.80
2023,03,29,12,46,12.70
2023,03,29,12,47,12.70
2023,03,29,12,48,12.80
2023,03,29,12,49,12.80
2023,03,29,12,50,12.80
2023,03,29,12,51,12.80
2023,03,29,12,52,12.80
2023,03,29,12,53,12.70
2023,03,29,12,54,12.70
2023,03,29,12,55,12.80
2023,03,29,12,56,12.90
2023,03,29,12,57,13.10
2023,03,29,12,58,13.10
2023,03,29,12,59,13.00
2023,03,29,13,00,12.80
2023,03,29,13,01,12.70
2023,03,29,13,02,12.60
2023,03,29,13,03,12.60
2023,03,29,13,04,12.60
2023,03,29,13,05,12.80
2023,03,29,13,06,12.90
2023,03,29,13,07,12.90
2023,03,29,13,08,12.80
2023,03,29,13,09,12.80
2023,03,29,13,10,12.60
2023,03,29,13,11,12.60
2023,03,29,13,12,12.70
2023,03,29,13,13,12.80
2023,03,29,13,14,12.80
2023,03,29,13,15,12.80
2023,03,29,13,16,12.80
2023,03,29,13,17,12.80
2023,03,29,13,18,12.80
2023,03,29,13,19,12.80
2023,03,29,13,20,12.70
2023,03,29,13,21,12.50
2023,03,29,13,22,12.50
2023,03,29,13,23,12.50
2023,03,29,13,24,12.50
2023,03,29,13,25,12.50
2023,03,29,13,26,12.60
2023,03,29,13,27,12.80
2023,03,29,13,28,12.90
2023,03,29,13,29,13.10
2023,03,29,13,30,13.30
2023,03,29,13,31,13.30
2023,03,29,13,32,13.30
2023,03,29,13,33,13.40
2023,03,29,13,34,13.50
2023,03,29,13,35,13.60
2023,03,29,13,36,13.60
2023,03,29,13,37,13.60
2023,03,29,13,38,13.60
2023,03,29,13,39,13.50
2023,03,29,13,40,13.50
2023,03,29,13,41,13.50
2023,03,29,13,42,13.60
2023,03,29,13,43,13.60
2023,03,29,13,44,13.50
2023,03,29,13,45,13.40
2023,03,29,13,46,13.30
2023,03,29,13,47,13.40
2023,03,29,13,48,13.40
2023,03,29,13,49,13.50
2023,03,29,13,50,13.60
2023,03,29,13,51,13.60
2023,03,29,13,52,13.60
2023,03,29,13,53,13.50
2023,03,29,13,54,13.40
2023,03,29,13,55,13.30
2023,03,29,13,56,13.30
2023,03,29,13,57,13.30
2023,03,29,13,58,13.30
2023,03,29,13,59,13.40
2023,03,29,14,00,13.50
2023,03,29,14,01,13.50
2023,03,29,14,02,13.50
2023,03,29,14,03,13.50
2023,03,29,14,04,13.40
2023,03,29,14,05,13.30
2023,03,29,14,06,13.40
2023,03,29,14,07,13.50
2023,03,29,14,08,13.70
2023,03,29,14,09,13.70
2023,03,29,14,10,13.60
2023,03,29,14,11,13.50
2023,03,29,14,12,13.40
2023,03,29,14,13,13.30
2023,03,29,14,14,13.30
2023,03,29,14,15,13.30
2023,03,29,14,16,13.30
2023,03,29,14,17,13.30
2023,03,29,14,18,13.30
2023,03,29,14,19,13.20
2023,03,29,14,20,13.10
2023,03,29,14,21,13.00
2023,03,29,14,22,12.90
2023,03,29,14,23,12.90
2023,03,29,14,24,13.00
2023,03,29,14,25,13.10
2023,03,29,14,26,13.20
2023,03,29,14,27,13.10
2023,03,29,14,28,13.00
2023,03,29,14,29,12.90
2023,03,29,14,30,12.90
2023,03,29,14,31,12.90
2023,03,29,14,32,13.00
2023,03,29,14,33,13.10
2023,03,29,14,34,13.20
2023,03,29,14,35,13.20
2023,03,29,14,36,13.20
2023,03,29,14,37,13.20
2023,03,29,14,38,13.30
2023,03,29,14,39,13.40
2023,03,29,14,40,13.30
2023,03,29,14,41,13.20
2023,03,29,14,42,13.10
2023,03,29,14,43,13.10
2023,03,29,14,44,13.10
2023,03,29,14,45,13.10
2023,03,29,14,46,13.10
2023,03,29,14,47,13.10
2023,03,29,14,48,13.00
2023,03,29,14,49,12.80
2023,03,29,14,50,12.80
2023,03,29,14,51,12.80
2023,03,29,14,52,12.90
2023,03,29,14,53,13.00
2023,03,29,14,54,13.10
2023,03,29,14,55,13.20
2023,03,29,14,56,13.20
2023,03,29,14,57,13.20
2023,03,29,14,58,13.20
2023,03,29,14,59,13.20
2023,03,29,15,00,13.20
2023,03,29,15,01,13.20
2023,03,29,15,02,13.30
2023,03,29,15,03,13.30
2023,03,29,15,04,13.40
2023,03,29,15,05,13.40
2023,03,29,15,06,13.40
2023,03,29,15,07,13.50
2023,03,29,15,08,13.60
2023,03,29,15,09,13.70
2023,03,29,15,10,13.70
2023,03,29,15,11,13.70
2023,03,29,15,12,13.70
2023,03,29,15,13,13.70
2023,03,29,15,14,13.70
2023,03,29,15,15,13.70
2023,03,29,15,16,13.70
2023,03,29,15,17,13.70
2023,03,29,15,18,13.70
2023,03,29,15,19,13.70
2023,03,29,15,20,13.70
2023,03,29,15,21,13.70
2023,03,29,15,22,13.60
2023,03,29,15,23,13.60
2023,03,29,15,24,13.60
2023,03,29,15,25,13.60
2023,03,29,15,26,13.60
2023,03,29,15,27,13.50
2023,03,29,15,28,13.40
2023,03,29,15,29,13.40
2023,03,29,15,30,13.40
2023,03,29,15,31,13.40
2023,03,29,15,32,13.40
2023,03,29,15,33,13.50
2023,03,29,15,34,13.50
2023,03,29,15,35,13.60
2023,03,29,15,36,13.60
2023,03,29,15,37,13.70
2023,03,29,15,38,13.80
2023,03,29,15,39,13.80
2023,03,29,15,40,13.90
2023,03,29,15,41,13.90
2023,03,29,15,42,13.90
2023,03,29,15,43,13.90
2023,03,29,15,44,13.90
2023,03,29,15,45,14.00
2023,03,29,15,46,14.00
2023,03,29,15,47,14.00
2023,03,29,15,48,14.10
2023,03,29,15,49,14.20
2023,03,29,15,50,14.20
2023,03,29,15,51,14.20
2023,03,29,15,52,14.30
2023,03,29,15,53,14.30
2023,03,29,15,54,14.40
2023,03,29,15,55,14.50
2023,03,29,15,56,14.60
2023,03,29,15,57,14.60
2023,03,29,15,58,14.70
2023,03,29,15,59,14.70
2023,03,29,16,00,14.70
2023,03,29,16,01,14.70
2023,03,29,16,02,14.70
2023,03,29,16,03,14.70
2023,03,29,16,04,14.80
2023,03,29,16,05,14.80
2023,03,29,16,06,14.90
2023,03,29,16,07,14.90
2023,03,29,16,08,14.90
2023,03,29,16,09,14.80
2023,03,29,16,10,14.70
2023,03,29,16,11,14.70
2023,03,29,16,12,14.70
2023,03,29,16,13,14.70
2023,03,29,16,14,14.60
2023,03,29,16,15,14.60
2023,03,29,16,16,14.70
2023,03,29,16,17,14.70
2023,03,29,16,18,14.70
2023,03,29,16,19,14.60
2023,03,29,16,20,14.50
2023,03,29,16,21,14.50
2023,03,29,16,22,14.30
2023,03,29,16,23,14.20
2023,03,29,16,24,14.20
2023,03,29,16,25,14.10
2023,03,29,16,26,14.00
2023,03,29,16,27,14.00
2023,03,29,16,28,14.00
2023,03,29,16,29,13.90
2023,03,29,16,30,14.00
2023,03,29,16,31,14.00
2023,03,29,16,32,14.10
2023,03,29,16,33,14.20
2023,03,29,16,34,14.20
2023,03,29,16,35,14.10
2023,03,29,16,36,14.10
2023,03,29,16,37,14.10
2023,03,29,16,38,14.10
2023,03,29,16,39,14.10
2023,03,29,16,40,14.10
2023,03,29,16,41,14.10
2023,03,29,16,42,14.10
2023,03,29,16,43,14.10
2023,03,29,16,44,14.10
2023,03,29,16,45,14.00
2023,03,29,16,46,14.00
2023,03,29,16,47,13.90
2023,03,29,16,48,13.90
2023,03,29,16,49,13.90
2023,03,29,16,50,14.00
2023,03,29,16,51,14.10
2023,03,29,16,52,14.10
2023,03,29,16,53,14.20
2023,03,29,16,54,14.10
2023,03,29,16,55,14.10
2023,03,29,16,56,14.00
2023,03,29,16,57,14.00
2023,03,29,16,58,13.90
2023,03,29,16,59,13.90
2023,03,29,17,00,13.80
2023,03,29,17,01,13.90
2023,03,29,17,02,13.90
2023,03,29,17,03,13.90
2023,03,29,17,04,13.90
2023,03,29,17,05,13.90
2023,03,29,17,06,13.90
2023,03,29,17,07,13.80
2023,03,29,17,08,13.90
2023,03,29,17,09,13.90
2023,03,29,17,10,13.90
2023,03,29,17,11,13.90
2023,03,29,17,12,13.90
2023,03,29,17,13,13.90
2023,03,29,17,14,13.90
2023,03,29,17,15,13.90
2023,03,29,17,16,13.90
2023,03,29,17,17,13.90
2023,03,29,17,18,13.90
2023,03,29,17,19,13.80
2023,03,29,17,20,13.80
2023,03,29,17,21,13.80
2023,03,29,17,22,13.80
2023,03,29,17,23,13.80
2023,03,29,17,24,13.80
2023,03,29,17,25,13.90
2023,03,29,17,26,13.90
2023,03,29,17,27,13.90
2023,03,29,17,28,13.90
2023,03,29,17,29,13.90
2023,03,29,17,30,13.90
2023,03,29,17,31,13.80
2023,03,29,17,32,13.80
2023,03,29,17,33,13.70
2023,03,29,17,34,13.70
2023,03,29,17,35,13.60
2023,03,29,17,36,13.50
2023,03,29,17,37,13.40
2023,03,29,17,38,13.30
2023,03,29,17,39,13.20
2023,03,29,17,40,13.20
2023,03,29,17,41,13.20